When you browse on this site, cookies collect data to enhance your experience and personalize the content and advertising you see.
Visit our Privacy Policy to learn more. By continuing to use the site, you agree to this use of cookies and data.
  • In Czech Republic
  • List of Countries
  • For 7 days
  • Water Temperature
  • Weather Map
  • Weather Widgets
  • user-avatar
    Login

    Hourly Weather Ostrava

    Today, 19 January, Sunday

    Time Temperature Precipitation Wind Pressure Humidity
    00:00 +1°C° 0.5 mm 2 mps 749 mmHg 98%
    01:00 +2°C° 0 mm 2 mps 749 mmHg 97%
    02:00 +2°C° 0.1 mm 2 mps 749 mmHg 98%
    03:00 +2°C° 0.1 mm 2 mps 749 mmHg 98%
    04:00 +3°C° 0.1 mm 1 mps 750 mmHg 98%
    05:00 +3°C° 0.5 mm 1 mps 750 mmHg 98%
    06:00 +3°C° 0.5 mm 1 mps 750 mmHg 98%
    07:00 +2°C° 0 mm 1 mps 751 mmHg 98%
    08:00 +2°C° 0.6 mm 1 mps 751 mmHg 98%
    09:00 +2°C° 0.6 mm 2 mps 751 mmHg 98%
    10:00 +2°C° 0.6 mm 2 mps 752 mmHg 98%
    11:00 +2°C° 0.5 mm 2 mps 752 mmHg 98%
    12:00 +2°C° 0.5 mm 2 mps 752 mmHg 97%
    13:00 +1°C° 0 mm 3 mps 753 mmHg 97%
    14:00 +1°C° 0.4 mm 3 mps 753 mmHg 98%
    15:00 +1°C° 0.4 mm 3 mps 754 mmHg 98%
    16:00 +1°C° 0.4 mm 3 mps 754 mmHg 98%
    17:00 +1°C° 0.4 mm 3 mps 755 mmHg 98%
    18:00 +1°C° 0.4 mm 3 mps 755 mmHg 98%
    19:00 +1°C° 0.4 mm 3 mps 756 mmHg 97%
    20:00 +1°C° 0.2 mm 3 mps 756 mmHg 97%
    21:00 +1°C° 0.2 mm 3 mps 757 mmHg 97%
    22:00 +1°C° 0.2 mm 3 mps 757 mmHg 97%
    23:00 +1°C° 0.2 mm 3 mps 758 mmHg 97%

    Tomorrow, 20 January, Monday

    Time Temperature Precipitation Wind Pressure Humidity
    00:00 +1°C° 0.2 mm 3 mps 758 mmHg 97%
    01:00 +1°C° 0.2 mm 3 mps 759 mmHg 97%
    02:00 +1°C° 0.1 mm 3 mps 759 mmHg 97%
    03:00 +1°C° 0.1 mm 2 mps 759 mmHg 97%
    04:00 +1°C° 0.1 mm 2 mps 759 mmHg 97%
    05:00 +1°C° 0 mm 2 mps 760 mmHg 97%
    06:00 +1°C° 0 mm 2 mps 761 mmHg 97%
    07:00 +1°C° 0 mm 2 mps 762 mmHg 97%
    08:00 +1°C° 0 mm 2 mps 762 mmHg 97%
    09:00 +1°C° 0 mm 2 mps 762 mmHg 96%
    10:00 +3°C° 0 mm 1 mps 763 mmHg 95%
    11:00 +2°C° 0 mm 2 mps 763 mmHg 94%
    12:00 +2°C° 0 mm 2 mps 763 mmHg 92%
    13:00 +2°C° 0 mm 2 mps 763 mmHg 91%
    14:00 +2°C° 0 mm 2 mps 763 mmHg 90%
    15:00 +3°C° 0 mm 1 mps 763 mmHg 89%
    16:00 +3°C° 0 mm 1 mps 763 mmHg 89%
    17:00 +3°C° 0 mm 1 mps 763 mmHg 89%
    18:00 +1°C° 0 mm 0 mps 763 mmHg 89%
    19:00 +1°C° 0 mm 0 mps 764 mmHg 89%
    20:00 0°C° 0 mm 0 mps 764 mmHg 89%
    21:00 +1°C° 0 mm 1 mps 764 mmHg 90%
    22:00 0°C° 0 mm 1 mps 764 mmHg 91%
    23:00 0°C° 0 mm 1 mps 763 mmHg 90%

    Day after tomorrow, 21 January, Tuesday

    Time Temperature Precipitation Wind Pressure Humidity
    00:00 0°C° 0 mm 1 mps 763 mmHg 90%
    01:00 0°C° 0 mm 1 mps 763 mmHg 89%
    02:00 0°C° 0 mm 1 mps 763 mmHg 88%
    03:00 -2°C° 0 mm 2 mps 762 mmHg 87%
    04:00 -2°C° 0 mm 2 mps 762 mmHg 86%
    05:00 -2°C° 0 mm 2 mps 762 mmHg 85%
    06:00 -2°C° 0 mm 2 mps 761 mmHg 84%
    07:00 -2°C° 0 mm 2 mps 761 mmHg 84%
    08:00 -1°C° 0 mm 2 mps 761 mmHg 82%
    09:00 +1°C° 0 mm 2 mps 761 mmHg 80%
    10:00 +2°C° 0 mm 2 mps 761 mmHg 78%
    11:00 +1°C° 0 mm 3 mps 760 mmHg 77%
    12:00 +2°C° 0 mm 3 mps 760 mmHg 76%
    13:00 +2°C° 0 mm 3 mps 760 mmHg 76%
    14:00 +2°C° 0 mm 3 mps 759 mmHg 79%
    15:00 +1°C° 0 mm 3 mps 759 mmHg 81%
    16:00 0°C° 0 mm 3 mps 759 mmHg 84%
    17:00 0°C° 0 mm 3 mps 758 mmHg 83%
    18:00 -1°C° 0 mm 3 mps 758 mmHg 83%
    19:00 -1°C° 0 mm 3 mps 758 mmHg 82%
    20:00 -1°C° 0 mm 3 mps 758 mmHg 83%
    21:00 -1°C° 0 mm 3 mps 757 mmHg 83%
    22:00 -2°C° 0 mm 3 mps 757 mmHg 83%
    23:00 -2°C° 0 mm 3 mps 757 mmHg 83%

    22 January, Wednesday

    Time Temperature Precipitation Wind Pressure Humidity
    00:00 -2°C° 0 mm 3 mps 756 mmHg 83%
    01:00 -2°C° 0 mm 3 mps 756 mmHg 83%
    02:00 -2°C° 0 mm 3 mps 755 mmHg 84%
    03:00 -2°C° 0 mm 3 mps 755 mmHg 84%
    04:00 -2°C° 0 mm 3 mps 754 mmHg 84%
    05:00 -2°C° 0 mm 3 mps 754 mmHg 85%
    06:00 -2°C° 0 mm 3 mps 753 mmHg 85%
    07:00 -2°C° 0 mm 3 mps 753 mmHg 85%
    08:00 -2°C° 0 mm 3 mps 753 mmHg 82%
    09:00 -1°C° 0 mm 3 mps 753 mmHg 79%
    10:00 -1°C° 0 mm 4 mps 753 mmHg 77%
    11:00 0°C° 0 mm 3 mps 753 mmHg 75%
    12:00 +1°C° 0 mm 3 mps 752 mmHg 74%
    13:00 +3°C° 0 mm 2 mps 752 mmHg 72%
    14:00 +2°C° 0 mm 2 mps 752 mmHg 75%
    15:00 +2°C° 0 mm 2 mps 752 mmHg 78%
    16:00 +1°C° 0 mm 2 mps 751 mmHg 80%
    17:00 +1°C° 0 mm 2 mps 752 mmHg 82%
    18:00 +1°C° 0 mm 2 mps 752 mmHg 83%
    19:00 +2°C° 0 mm 2 mps 752 mmHg 84%
    20:00 +2°C° 0 mm 2 mps 752 mmHg 86%
    21:00 +2°C° 0 mm 2 mps 753 mmHg 88%
    22:00 +2°C° 0 mm 2 mps 753 mmHg 90%
    23:00 +2°C° 0 mm 2 mps 753 mmHg 92%

    23 January, Thursday

    Time Temperature Precipitation Wind Pressure Humidity
    00:00 +2°C° 0 mm 2 mps 753 mmHg 93%
    01:00 +2°C° 0 mm 2 mps 754 mmHg 94%
    02:00 +1°C° 0 mm 2 mps 754 mmHg 94%
    03:00 +1°C° 0 mm 2 mps 754 mmHg 93%
    04:00 +2°C° 0 mm 1 mps 754 mmHg 93%
    05:00 +2°C° 0 mm 1 mps 754 mmHg 92%
    06:00 +2°C° 0 mm 1 mps 754 mmHg 91%
    07:00 +1°C° 0 mm 1 mps 754 mmHg 90%
    08:00 +2°C° 0 mm 1 mps 754 mmHg 87%
    09:00 +2°C° 0 mm 1 mps 755 mmHg 84%
    10:00 +3°C° 0 mm 1 mps 755 mmHg 81%
    11:00 +3°C° 0 mm 1 mps 755 mmHg 77%
    12:00 +4°C° 0 mm 1 mps 754 mmHg 72%
    13:00 +4°C° 0 mm 1 mps 754 mmHg 68%
    14:00 +3°C° 0 mm 0 mps 754 mmHg 71%
    15:00 +2°C° 0 mm 0 mps 754 mmHg 73%
    16:00 +1°C° 0 mm 0 mps 753 mmHg 76%
    17:00 +2°C° 0 mm 1 mps 753 mmHg 77%
    18:00 +1°C° 0 mm 1 mps 753 mmHg 79%
    19:00 +1°C° 0 mm 1 mps 753 mmHg 80%
    20:00 -1°C° 0 mm 2 mps 753 mmHg 81%
    21:00 -1°C° 0 mm 2 mps 753 mmHg 82%
    22:00 -2°C° 0 mm 2 mps 753 mmHg 83%
    23:00 -2°C° 0 mm 2 mps 752 mmHg 84%

    24 January, Friday

    Time Temperature Precipitation Wind Pressure Humidity
    00:00 -2°C° 0 mm 2 mps 752 mmHg 85%
    01:00 -2°C° 0 mm 3 mps 752 mmHg 85%
    02:00 -2°C° 0 mm 3 mps 751 mmHg 85%
    03:00 -2°C° 0 mm 3 mps 751 mmHg 85%
    04:00 -2°C° 0 mm 3 mps 751 mmHg 85%
    05:00 -2°C° 0 mm 3 mps 751 mmHg 84%
    06:00 -2°C° 0 mm 3 mps 751 mmHg 84%
    07:00 -2°C° 0 mm 3 mps 750 mmHg 83%
    08:00 -1°C° 0 mm 3 mps 750 mmHg 79%
    09:00 -1°C° 0 mm 4 mps 750 mmHg 75%
    10:00 0°C° 0 mm 4 mps 750 mmHg 71%
    11:00 0°C° 0 mm 4 mps 750 mmHg 70%
    12:00 +1°C° 0 mm 4 mps 749 mmHg 70%
    13:00 +1°C° 0 mm 4 mps 749 mmHg 69%
    14:00 +1°C° 0 mm 4 mps 749 mmHg 73%
    15:00 0°C° 0 mm 4 mps 748 mmHg 76%
    16:00 -1°C° 0 mm 4 mps 748 mmHg 80%
    17:00 -1°C° 0 mm 4 mps 748 mmHg 81%
    18:00 -2°C° 0 mm 4 mps 748 mmHg 81%
    19:00 -1°C° 0 mm 3 mps 747 mmHg 82%
    20:00 -1°C° 0 mm 3 mps 747 mmHg 82%
    21:00 -1°C° 0 mm 3 mps 747 mmHg 82%
    22:00 -2°C° 0 mm 3 mps 747 mmHg 82%
    23:00 -2°C° 0 mm 3 mps 747 mmHg 82%
    Show more